Weather WX

World > North America > United States > Oregon

Waldport, Oregon Regional Weather

Lat: 44.42N, Lon: 124.06W
Wx Zone: ORZ002
Feedback

Waldport, OR Regional Weather

Expires:201906260500;;086870
ASUS46 KPQR 260410
RWROR 

OREGON REGIONAL WEATHER ROUNDUP
NATIONAL WEATHER SERVICE PORTLAND OR
900 PM PDT TUE JUN 25 2019

NOTE: "FAIR" INDICATES FEW OR NO CLOUDS BELOW 12,000 FEET WITH
NO SIGNIFICANT WEATHER AND/OR OBSTRUCTIONS TO VISIBILITY.


ORZ001>013-260500-
NORTHWEST OREGON

  
CITY           SKY/WX    TMP DP  RH WIND       PRES   REMARKS
ASTORIA        PTCLDY    56  49  77 SW5       29.91R                  
TILLAMOOK      PTCLDY    55  50  82 W3        29.93S                  
NEWPORT        PTCLDY    54  52  94 S3        29.96R                  
PORTLAND       MOCLDY    65  53  65 N7        29.87R                  
VANCOUVER WA   MOCLDY    65  53  65 N8        29.87R                  
SCAPPOOSE      MOCLDY    63  51  65 N7        29.87R                  
HILLSBORO      CLOUDY    62  51  67 W7        29.88R                  
AURORA         CLOUDY    64  48  56 SW8       29.89R                  
MCMINNVILLE    PTCLDY    59  47  64 W7        29.88R                  
SALEM          CLOUDY    61  47  59 W8        29.89R                  
CORVALLIS      PTCLDY    59  48  67 NW9       29.92R                  
EUGENE         PTCLDY    62  44  51 W7        29.92R                  
$$


SKY/WX - Weather  TMP - Temperature  DP - Dew Point  RH - Relative Humidity
WIND - Wind Direction/Speed PRES - Barometric Pressure VSB - Visibility
WCI - Wind Chill Index E13G22 Wind - East Wind 13 mph/Gusts of 22 mph